Probability
5 12 18 13 4 1 0 0 0 0 0 0 0 0 0 0 0 0 0 0 0 0 0 0 0 0 0 0 0 0 0 0 0 0 0 0 0 0 0 0 0 0 0
11 14 19 14 5 1 0 0 0 0 0 0 0 0 0 0 0 0 0 0 0 0 0 0 0 0 0 0 0 0 0 0 0 0 0 0 0 0 0 0 0 0 0
18 17 17 13 5 1 0 0 0 0 0 0 0 0 0 0 0 0 0 0 0 0 0 0 0 0 0 0 0 0 0 0 0 0 0 0 0 0 0 0 0 0 0
24 19 14 10 6 1 0 0 0 0 0 0 0 0 0 0 0 0 0 0 0 0 0 0 0 0 0 0 0 0 0 0 0 0 0 0 0 0 0 0 0 0 0
27 19 12 9 6 2 0 0 0 0 0 0 0 0 0 0 0 0 0 0 0 0 0 0 0 0 0 0 0 0 0 0 0 0 0 0 0 0 0 0 0 0 0
27 19 11 9 6 2 0 0 0 0 0 0 0 0 0 0 0 0 0 0 0 0 0 0 0 0 0 0 0 0 0 0 0 0 0 0 0 0 0 0 0 0 0
27 20 12 9 6 2 0 0 0 0 0 0 0 0 0 0 0 0 0 0 0 0 0 0 0 0 0 0 0 0 0 0 0 0 0 0 0 0 0 0 0 0 0
31 22 13 9 6 3 1 0 0 0 0 0 0 0 0 0 0 0 0 0 0 0 0 0 0 0 0 0 0 0 0 0 0 0 0 0 0 0 0 0 0 0 0
33 24 13 7 5 2 1 0 0 0 0 0 0 0 0 0 0 0 0 0 0 0 0 0 0 0 0 0 0 0 0 0 0 0 0 0 0 0 0 0 0 0 0
34 25 13 5 3 1 0 0 0 0 0 0 0 0 0 0 0 0 0 0 0 0 0 0 0 0 0 0 0 0 0 0 0 0 0 0 0 0 0 0 0 0 0
32 24 12 4 2 1 0 0 0 0 0 0 0 0 0 0 0 0 0 0 0 0 0 0 0 0 0 0 0 0 0 0 0 0 0 0 0 0 0 0 0 0 0
25 20 10 4 2 1 0 0 0 0 0 0 0 0 0 0 0 0 0 0 0 0 0 0 0 0 0 0 0 0 0 0 0 0 0 0 0 0 0 0 0 0 0
20 16 9 5 2 1 0 0 0 0 0 0 0 0 0 0 0 0 0 0 0 0 0 0 0 0 0 0 0 0 0 0 0 0 0 0 0 0 0 0 0 0 0
19 16 11 6 4 2 1 0 0 0 0 0 0 0 0 0 0 0 0 0 0 0 0 0 0 0 0 0 0 0 0 0 0 0 0 0 0 0 0 0 0 0 0
21 16 11 7 4 3 2 1 0 0 0 0 0 0 0 0 0 0 0 0 0 0 0 0 0 0 0 0 0 0 0 0 0 0 0 0 0 0 0 0 0 0 0
19 16 10 5 2 3 3 1 0 0 0 0 0 0 0 0 0 0 0 0 0 0 0 0 0 0 0 0 0 0 0 0 0 0 0 0 0 0 0 0 0 0 0
17 16 13 7 4 3 2 1 0 0 0 0 0 0 0 0 0 0 0 0 0 0 0 0 0 0 0 0 0 0 0 0 0 0 0 0 0 0 0 0 0 0 0
17 17 15 13 9 5 3 3 2 0 0 0 0 0 0 0 0 0 0 0 0 0 0 0 0 0 0 0 0 0 0 0 0 0 0 0 0 0 0 0 0 0 0
14 14 13 13 12 8 6 7 5 2 0 0 0 0 0 0 0 0 0 0 0 0 0 0 0 0 0 0 0 0 0 0 0 0 0 0 0 0 0 0 0 0 0
9 9 9 9 10 9 9 9 7 4 2 1 0 0 0 0 0 0 0 0 0 0 0 0 0 0 0 0 0 0 0 0 0 0 0 0 0 0 0 0 0 0 0
5 5 5 6 7 8 8 7 6 4 2 1 0 0 0 0 0 0 0 0 0 0 0 0 0 0 0 0 0 0 0 0 0 0 0 0 0 0 0 0 0 0 0
3 2 2 3 4 5 6 5 4 2 1 1 0 0 0 0 0 0 0 0 0 0 0 0 0 0 0 0 0 0 0 0 0 0 0 0 0 0 0 0 0 0 0
2 2 1 1 1 2 4 5 4 2 1 1 0 0 0 0 0 0 0 0 0 0 0 0 0 0 0 0 0 0 0 0 0 0 0 0 0 0 0 0 0 0 0
0 1 1 0 0 1 4 6 5 4 2 1 0 0 0 0 0 0 0 0 0 0 0 0 0 0 0 0 0 0 0 0 0 0 0 0 0 0 0 0 0 0 0
0 0 0 0 0 1 3 5 6 5 4 2 1 0 0 0 0 0 0 0 0 0 0 0 0 0 0 0 0 0 0 0 0 0 0 0 0 0 0 0 0 0 0
0 0 0 0 0 0 1 3 5 6 4 3 2 1 0 0 0 0 0 0 0 0 0 0 0 0 0 0 0 0 0 0 0 0 0 0 0 0 0 0 0 0 0
Wind_Speed
7 10 18 18 17 16 15 14 13 12 12 12 12 14 16 17 17 17 17 17 17 17 18 18 18 18 17 17 16 16 16 15 15 15 15 14 14 14 14 13 11 7 13
10 12 18 18 17 16 15 14 13 12 12 12 13 15 17 18 18 18 18 18 18 17 17 18 17 17 16 15 15 14 14 14 14 13 12 10 12 13 13 13 12 8 13
13 12 15 17 17 16 15 14 13 13 12 12 13 15 17 18 18 18 18 17 17 17 17 17 16 15 14 13 12 12 12 12 12 12 10 5 7 12 12 12 12 13 12
13 11 12 17 17 16 15 14 14 13 13 13 14 15 17 18 18 18 17 17 17 16 16 16 15 14 13 12 11 11 11 11 11 10 6 5 5 11 12 12 12 12 12
10 9 12 17 17 16 15 15 14 14 13 13 14 15 16 17 17 17 16 16 16 15 15 14 13 12 12 11 11 11 11 11 10 8 5 5 4 10 11 11 11 11 11
9 9 12 16 16 15 15 15 15 14 14 14 14 15 15 16 16 16 15 15 14 14 14 13 12 11 11 11 11 11 11 10 8 4 4 4 3 8 10 10 10 10 10
9 8 11 16 16 15 14 14 15 14 14 14 14 15 15 15 16 15 14 14 13 13 13 12 11 11 10 10 11 10 9 8 5 3 3 3 3 7 8 8 8 9 9
10 9 10 16 15 14 13 13 14 15 14 14 14 15 15 15 15 14 13 13 12 12 11 10 10 9 9 9 9 8 7 5 4 2 2 2 2 5 6 6 7 7 8
9 8 7 9 10 12 11 12 12 14 13 13 13 14 13 13 13 13 12 11 11 10 9 9 8 8 8 8 7 6 5 5 3 1 0 1 1 2 4 4 4 5 6
8 8 8 7 7 7 7 10 11 12 11 11 11 11 11 10 11 11 9 9 9 8 7 7 6 6 6 6 6 5 5 4 1 0 1 2 3 1 1 1 1 2 3
9 7 8 8 7 7 6 8 9 10 10 10 9 10 8 5 5 5 6 7 7 6 6 5 4 4 5 5 5 4 4 1 0 1 1 4 4 3 2 1 1 1 0
11 10 8 9 8 7 6 5 4 5 6 5 5 6 4 4 3 4 5 5 5 4 3 3 3 4 4 2 3 3 1 1 0 1 2 5 6 5 5 4 4 3 3
9 10 9 9 8 8 6 5 3 3 4 5 5 5 4 3 2 2 2 2 2 2 1 2 3 2 1 1 1 1 1 1 1 2 3 6 7 7 7 6 6 6 5
9 9 9 9 8 8 7 6 5 4 4 4 5 5 4 3 2 2 2 1 1 1 1 0 0 0 1 1 1 2 2 1 2 2 3 7 8 8 9 8 8 7 7
12 10 9 9 9 8 7 6 6 5 5 5 5 5 5 4 4 3 2 2 2 1 1 1 1 1 1 1 1 2 2 3 3 3 3 6 8 9 10 10 10 9 9
13 12 9 9 9 8 7 6 6 5 5 5 5 6 6 4 4 4 3 3 3 2 2 2 2 1 1 1 2 2 2 3 3 3 3 4 7 8 10 11 11 11 10
11 11 10 10 9 9 8 8 6 5 5 5 5 6 6 5 5 4 3 3 3 3 3 2 1 1 1 1 2 2 2 3 3 4 4 3 4 6 9 10 10 11 9
9 10 11 10 9 9 8 7 5 6 6 5 5 5 7 7 6 5 4 4 3 3 3 2 2 1 1 1 2 2 2 3 4 4 3 3 3 3 5 7 8 8 6
11 11 12 11 10 9 7 6 5 5 5 5 4 5 6 7 7 5 4 4 4 3 3 2 2 2 2 2 2 2 3 3 3 3 3 3 3 3 2 3 4 3 3
8 10 11 11 10 8 6 4 3 4 4 4 4 5 6 6 7 6 4 4 4 3 3 2 2 1 1 1 2 2 3 3 2 2 3 2 2 2 2 1 1 2 2
7 9 10 11 10 8 6 5 5 5 4 4 4 5 6 6 7 6 4 4 4 4 3 3 2 2 0 0 1 3 3 2 2 2 2 2 3 3 2 2 1 2 2
8 8 9 10 9 9 7 6 4 4 3 3 3 4 5 6 6 6 6 5 4 3 3 3 2 2 1 1 1 1 3 4 3 2 3 3 3 3 4 4 4 3 3
7 8 8 8 10 10 9 5 3 3 2 2 3 3 4 5 6 6 6 5 4 4 4 3 3 3 2 0 1 2 1 2 3 2 2 3 4 3 3 3 5 4 4
6 6 7 8 8 8 9 8 8 7 6 6 5 4 4 4 4 5 5 5 4 4 4 3 3 3 3 2 1 1 2 2 1 3 2 2 3 4 4 4 4 4 4
4 4 4 5 5 6 7 9 8 6 5 4 4 5 4 3 4 4 5 5 4 3 4 4 3 3 2 2 2 1 1 1 3 3 4 2 1 2 3 3 3 3 4
2 2 3 4 4 4 5 6 8 8 7 6 6 6 4 3 3 4 4 4 5 4 4 4 3 3 2 2 2 2 2 2 2 3 4 3 2 0 2 2 2 2 3
Wind_Direction
158 156 153 147 142 138 136 133 126 118 116 114 117 122 125 124 122 119 116 114 111 110 109 108 106 104 100 95 91 87 83 79 76 75 72 72 73 71 69 66 63 56 67
147 152 151 148 144 140 138 134 127 121 117 115 117 121 122 121 121 120 117 115 113 112 111 110 107 103 100 96 92 90 88 83 79 74 68 64 69 70 68 64 65 64 66
144 149 149 147 144 141 139 136 131 125 121 118 117 120 120 119 120 119 117 115 114 114 113 110 106 102 99 97 95 95 93 88 81 74 65 49 65 73 71 67 65 63 64
143 145 146 146 144 142 141 138 134 129 126 121 119 119 119 118 118 117 115 114 114 114 112 109 105 101 97 95 96 99 99 95 85 76 57 42 49 71 70 67 65 62 59
139 140 147 146 144 144 144 141 136 132 130 125 123 121 119 118 117 116 115 114 114 113 113 110 106 101 96 94 98 101 102 99 89 76 60 47 42 69 68 66 63 61 58
136 138 147 144 144 145 147 144 140 137 134 130 127 124 122 121 119 117 117 116 116 116 115 112 107 101 97 96 98 103 104 99 85 73 62 48 42 72 70 66 64 61 58
139 140 147 145 146 148 149 147 143 140 138 135 131 128 127 125 123 123 122 121 120 119 118 115 109 102 97 97 98 100 103 99 89 76 59 40 51 75 73 68 63 61 58
144 143 148 147 147 148 150 150 147 144 143 141 136 133 132 131 130 129 128 126 125 123 120 116 110 102 97 96 97 96 98 101 96 82 56 19 45 75 77 72 66 61 58
145 144 143 145 146 148 149 151 151 148 148 146 142 138 135 135 136 135 133 132 129 126 122 116 109 100 92 89 91 92 94 98 98 100 31 333 341 65 80 77 66 60 56
149 147 144 141 140 140 146 151 150 148 148 147 141 134 134 137 139 138 135 134 132 129 124 117 108 95 81 75 78 83 90 88 87 7 294 280 290 304 66 86 67 56 54
162 155 150 146 143 141 145 152 147 146 148 143 137 136 130 125 127 131 135 135 135 135 132 125 108 84 66 52 55 69 84 84 63 275 268 270 275 275 272 263 264 271 4
174 168 160 156 151 147 149 142 137 137 138 132 132 133 123 121 123 127 142 145 145 142 133 118 86 62 57 39 31 50 59 31 316 273 267 275 275 273 272 263 258 256 256
179 176 168 163 158 154 146 145 138 134 133 134 140 138 131 125 122 117 126 136 130 122 89 59 51 48 40 21 4 357 330 307 274 273 277 282 279 274 273 269 260 255 253
182 185 176 168 163 161 153 152 151 151 152 154 157 153 147 147 152 156 158 159 152 138 147 123 98 7 344 325 310 303 298 281 268 265 270 280 282 278 277 277 270 262 256
186 187 185 176 170 165 157 158 162 165 167 165 163 166 166 166 174 175 175 177 185 182 188 194 209 259 290 299 287 267 275 276 274 270 275 282 282 279 277 277 276 270 264
183 184 189 183 177 169 167 166 168 172 168 165 172 178 178 177 178 178 182 190 199 197 197 195 206 233 269 284 289 276 269 274 273 274 268 278 279 277 276 276 276 276 274
184 181 190 193 182 179 178 174 169 172 171 175 181 182 183 182 183 181 182 196 205 193 189 190 207 210 247 257 271 275 268 267 270 271 269 265 273 277 275 276 279 281 282
185 185 190 197 191 188 182 177 173 173 177 183 181 183 189 188 184 179 184 200 195 178 173 178 183 195 229 243 264 277 275 274 274 272 272 273 273 275 281 284 284 284 287
189 189 188 189 190 191 187 179 177 174 180 183 181 186 193 192 185 181 188 192 177 169 172 176 172 180 209 245 266 277 278 272 273 281 288 288 281 279 279 298 299 304 308
193 197 194 191 189 185 183 177 173 178 184 180 185 192 193 191 183 179 182 179 166 161 166 169 171 172 192 238 284 290 280 276 285 298 300 306 307 305 300 311 338 5 21
194 198 197 195 190 181 181 186 188 196 193 186 188 192 198 191 183 179 177 170 167 169 169 165 154 153 156 82 358 324 312 306 326 340 350 358 360 3 22 24 34 43 39
196 198 195 196 192 191 193 189 183 174 185 186 177 182 195 194 184 179 172 167 165 155 148 147 138 134 130 104 119 357 332 337 352 17 23 30 23 28 38 42 49 51 45
199 196 196 197 194 196 192 170 146 132 115 163 188 188 196 191 181 172 168 160 158 156 158 155 151 154 170 176 170 173 211 275 309 329 29 36 32 34 31 40 46 46 50
217 200 193 194 197 194 186 183 178 181 188 197 192 180 174 171 166 162 155 152 152 148 150 155 155 156 155 185 209 214 210 206 256 307 328 29 39 36 27 34 38 41 43
208 199 193 188 189 187 185 188 189 193 193 173 162 161 161 152 147 147 144 143 142 142 146 143 145 146 152 169 182 191 219 219 218 239 277 303 13 31 30 33 36 36 35
166 161 163 173 183 178 182 188 189 191 180 167 171 170 166 154 141 147 143 145 144 141 142 139 138 139 146 159 176 188 198 209 215 224 250 261 256 197 54 38 36 35 38